Temp
63 63 63 63 63 63 63 64 64 63 63 63 64 64 63 63 63 59 60 67 67 71 69 64 66 63 63 59 59 56 48 45 48 48 54 58 58 61 61 62 62 64 64 62 62
62 62 63 63 63 63 63 63 63 63 63 63 63 63 63 63 58 59 69 72 71 70 64 62 59 61 57 57 56 52 46 50 53 53 54 56 56 58 59 58 59 61 63 57 55
62 62 62 62 62 63 63 63 63 63 63 62 63 63 63 59 59 61 70 72 71 68 65 63 63 61 55 55 53 51 50 52 54 56 56 55 55 57 56 56 59 59 57 52 51
61 61 61 62 62 62 63 63 63 63 63 62 62 63 62 58 51 62 69 70 70 66 65 62 60 55 51 50 53 49 52 54 56 55 54 53 56 55 56 57 54 50 50 49 48
61 60 61 61 61 62 62 63 63 62 62 62 63 63 60 56 60 63 67 67 64 63 62 59 56 54 51 51 52 49 51 54 55 55 54 53 54 55 54 50 50 50 48 46 46
60 60 60 60 60 61 62 62 62 62 62 63 63 62 56 51 63 65 64 63 63 62 59 60 58 57 53 52 51 52 51 53 54 55 54 53 51 54 53 50 48 47 45 45 44
60 60 60 60 60 61 61 62 62 62 62 63 63 60 54 59 63 63 64 61 63 62 59 59 60 57 55 50 53 51 49 51 52 52 53 53 49 49 51 48 45 43 43 44 44
60 60 60 60 60 60 61 61 61 61 62 62 63 55 54 62 61 62 63 60 61 62 62 61 61 57 54 54 52 47 46 44 51 51 50 52 47 48 50 48 42 41 41 42 43
60 59 59 60 60 60 60 61 61 62 63 63 55 53 53 63 59 61 61 60 59 59 60 64 58 52 52 46 43 42 39 40 47 51 49 49 47 45 47 45 40 39 40 41 41
59 59 59 60 60 60 60 61 61 60 60 61 61 51 56 56 59 60 58 61 57 57 56 54 48 44 43 43 36 38 38 39 42 48 47 45 47 43 42 42 38 37 38 39 40
59 59 60 60 60 60 58 56 54 52 50 55 52 53 55 56 59 57 59 58 56 53 46 46 43 41 47 45 44 43 40 41 44 48 46 45 45 43 40 39 37 37 38 38 39
59 59 60 60 60 60 56 50 53 53 47 54 53 54 57 59 52 56 60 54 51 46 45 42 39 50 48 45 45 42 40 40 44 47 45 44 43 39 38 38 39 38 38 38 39
59 59 59 59 60 58 55 53 58 55 45 50 52 52 54 58 54 53 57 53 49 43 44 42 45 48 48 43 41 39 39 38 42 42 43 40 39 35 36 37 38 38 38 38 38
59 59 59 59 55 55 53 58 59 56 39 43 49 51 53 55 48 55 57 55 49 45 44 43 47 46 42 42 45 36 43 42 41 38 34 40 31 35 34 33 35 35 36 36 37
59 59 59 59 55 53 57 58 58 58 32 46 45 54 52 51 48 48 53 52 44 45 47 43 42 42 41 44 45 41 42 41 39 36 33 34 32 35 33 30 32 33 35 35 36
58 58 58 57 56 54 54 57 54 39 30 41 44 44 44 46 46 48 48 51 49 44 41 42 45 45 45 44 46 43 40 38 35 34 27 35 36 35 29 34 33 34 35 35 35
58 58 57 58 54 53 56 53 39 31 43 39 38 42 40 39 41 43 43 41 39 34 33 39 41 43 45 40 41 41 38 29 27 25 27 33 31 39 36 37 38 34 35 35 35
57 57 57 59 54 54 53 45 30 39 38 42 40 39 38 40 39 40 38 36 41 39 34 34 32 41 44 43 39 36 38 30 22 22 27 32 29 37 34 36 39 39 38 35 34
57 57 56 57 55 55 48 37 36 39 44 41 41 36 35 39 39 37 35 35 42 42 40 33 34 40 41 43 44 38 34 40 29 16 22 30 34 32 33 32 35 35 34 34 34
55 54 54 56 56 52 44 40 41 46 46 44 40 40 33 35 37 36 34 40 41 44 45 41 34 37 39 43 41 40 42 33 30 20 17 27 30 34 29 29 31 33 33 34 34
53 48 53 57 55 48 39 40 43 48 50 46 43 42 38 36 39 34 37 40 42 40 47 42 39 33 38 36 36 35 34 34 35 31 23 19 29 36 35 33 31 34 36 35 34
49 43 50 55 45 45 41 44 47 46 49 47 45 46 43 41 40 37 38 41 43 44 41 43 39 28 32 35 36 36 36 36 32 24 24 25 28 35 35 36 35 35 37 36 36
45 44 50 49 41 41 43 43 45 44 46 45 43 46 46 43 37 41 39 39 40 42 42 41 35 27 30 32 33 33 35 34 33 30 22 24 27 34 34 34 36 36 37 36 34
42 38 42 44 43 41 42 42 41 46 46 47 45 45 42 39 43 39 38 38 39 39 43 45 34 32 34 32 32 29 32 33 35 23 26 32 29 32 31 33 33 35 36 34 34
41 38 39 35 38 40 40 36 39 39 44 46 42 43 42 38 39 37 39 34 37 41 38 40 32 30 30 30 32 29 29 31 30 35 32 31 33 35 37 36 35 37 35 33 34
38 36 38 34 37 38 39 33 36 39 40 38 38 42 42 36 37 33 35 35 35 34 35 34 31 32 28 27 28 27 29 30 31 31 30 30 32 38 37 33 31 33 33 34 34
40 39 39 37 34 34 33 35 35 39 38 39 38 38 36 37 39 38 40 39 36 33 32 31 29 28 25 23 25 25 28 29 30 29 34 29 38 31 31 33 34 33 34 35 35
MSLP
1020.14 1020.14 1020.00 1020.04 1019.94 1019.79 1019.69 1019.54 1019.35 1019.11 1018.90 1018.68 1018.35 1018.03 1017.70 1017.32 1016.93 1016.92 1016.50 1016.01 1015.88 1015.85 1015.93 1016.05 1016.13 1016.46 1016.78 1017.86 1018.38 1019.08 1019.99 1020.43 1019.86 1019.66 1018.68 1018.36 1018.21 1018.05 1017.97 1018.07 1018.04 1018.17 1018.77 1019.89 1019.72
1020.09 1020.08 1019.95 1019.98 1019.94 1019.83 1019.60 1019.49 1019.36 1019.14 1018.87 1018.60 1018.34 1017.98 1017.60 1017.36 1017.04 1016.57 1015.95 1015.78 1015.76 1015.81 1015.98 1016.25 1016.64 1016.80 1017.60 1018.20 1018.69 1019.26 1020.10 1019.68 1019.25 1018.96 1018.62 1018.49 1018.47 1018.41 1018.49 1018.77 1018.76 1019.01 1019.56 1020.44 1020.51
1020.06 1020.01 1020.00 1019.85 1019.81 1019.74 1019.64 1019.38 1019.24 1019.06 1018.83 1018.52 1018.19 1017.83 1017.46 1017.29 1017.05 1016.09 1015.75 1015.72 1015.79 1015.86 1015.98 1016.28 1016.64 1017.05 1017.94 1018.34 1018.86 1019.19 1019.39 1019.25 1018.92 1018.71 1018.52 1018.58 1018.64 1018.61 1018.97 1019.36 1019.76 1020.30 1020.89 1021.46 1021.61
1019.86 1019.83 1019.81 1019.76 1019.65 1019.56 1019.47 1019.36 1019.13 1018.89 1018.72 1018.46 1018.07 1017.62 1017.22 1017.10 1016.96 1015.95 1015.78 1015.77 1015.88 1015.98 1016.17 1016.53 1016.94 1017.55 1018.28 1018.66 1018.86 1019.22 1019.09 1019.02 1018.68 1018.61 1018.64 1018.69 1018.81 1019.09 1019.55 1020.37 1020.90 1021.56 1022.11 1022.45 1022.53
1019.57 1019.56 1019.60 1019.55 1019.44 1019.38 1019.26 1019.13 1019.04 1018.84 1018.61 1018.40 1018.07 1017.64 1017.14 1017.18 1016.35 1015.78 1015.84 1015.91 1016.03 1016.13 1016.36 1016.73 1017.12 1017.64 1018.28 1018.67 1018.96 1019.16 1019.09 1018.94 1018.68 1018.65 1018.66 1018.78 1019.11 1019.58 1020.32 1021.38 1022.08 1022.52 1022.89 1023.21 1023.45
1019.27 1019.37 1019.39 1019.39 1019.22 1019.13 1019.11 1018.98 1018.86 1018.72 1018.54 1018.32 1018.07 1017.78 1017.64 1017.13 1015.62 1015.73 1015.93 1016.09 1016.12 1016.24 1016.52 1016.69 1017.09 1017.52 1018.29 1018.68 1018.96 1019.05 1019.16 1018.97 1018.63 1018.59 1018.63 1018.90 1019.47 1019.84 1021.24 1022.05 1022.70 1023.31 1023.90 1024.22 1024.30
1018.99 1019.07 1019.15 1019.18 1019.09 1018.95 1018.89 1018.80 1018.69 1018.55 1018.31 1018.15 1018.03 1017.99 1017.68 1016.29 1015.47 1015.68 1015.81 1015.98 1016.08 1016.23 1016.57 1016.70 1016.92 1017.46 1018.24 1018.95 1019.14 1019.30 1019.45 1019.18 1018.54 1018.49 1018.58 1018.87 1020.00 1020.74 1021.63 1022.62 1023.44 1024.19 1024.58 1024.74 1024.88
1018.69 1018.75 1018.85 1018.98 1018.89 1018.81 1018.71 1018.59 1018.44 1018.30 1018.10 1017.90 1017.94 1018.07 1017.05 1015.63 1015.64 1015.81 1015.80 1016.20 1016.26 1016.26 1016.50 1016.83 1017.00 1017.71 1018.34 1019.08 1019.62 1019.88 1019.99 1019.79 1018.71 1018.61 1018.72 1019.22 1020.61 1021.78 1022.27 1022.97 1024.26 1024.89 1025.30 1025.43 1025.50
1018.21 1018.41 1018.56 1018.71 1018.57 1018.67 1018.48 1018.36 1018.21 1018.07 1018.02 1017.95 1018.06 1018.03 1016.88 1015.77 1015.79 1015.64 1015.71 1016.15 1016.47 1016.74 1016.94 1017.09 1017.53 1018.65 1019.03 1019.72 1020.55 1020.72 1020.51 1020.27 1019.31 1018.79 1019.03 1019.58 1020.73 1022.19 1022.75 1023.50 1024.86 1025.56 1025.88 1026.03 1026.06
1017.76 1017.88 1018.26 1018.36 1018.49 1018.40 1018.16 1018.10 1017.87 1018.05 1018.10 1018.04 1018.04 1018.25 1016.39 1015.81 1015.59 1015.70 1015.85 1016.17 1016.68 1017.13 1017.56 1017.92 1018.74 1019.43 1019.96 1020.15 1020.62 1020.56 1020.80 1020.38 1019.78 1019.26 1019.44 1020.13 1020.84 1022.42 1023.43 1024.16 1025.31 1026.03 1026.32 1026.49 1026.53
1017.38 1017.55 1017.79 1018.01 1018.25 1018.35 1018.26 1017.98 1018.38 1018.35 1018.04 1016.67 1016.53 1016.17 1015.65 1015.82 1015.90 1015.90 1015.91 1016.21 1016.81 1017.57 1018.18 1018.70 1019.39 1019.23 1018.72 1019.11 1019.47 1019.92 1020.30 1020.21 1019.77 1019.39 1019.80 1020.25 1021.13 1022.33 1024.00 1024.91 1025.72 1026.17 1026.49 1026.68 1026.85
1016.88 1017.13 1017.30 1017.63 1018.08 1018.27 1018.36 1018.17 1017.25 1017.48 1017.04 1015.92 1016.10 1015.96 1015.42 1015.34 1015.91 1016.02 1016.07 1016.38 1016.89 1017.66 1018.43 1019.34 1018.82 1017.96 1018.43 1019.19 1019.68 1020.03 1020.41 1020.43 1020.00 1019.70 1020.21 1020.56 1021.49 1022.77 1024.05 1025.12 1025.78 1026.27 1026.79 1027.01 1027.29
1016.23 1016.45 1016.81 1017.23 1017.81 1018.27 1018.01 1017.46 1016.80 1016.95 1017.26 1015.62 1015.19 1014.96 1014.81 1015.09 1015.16 1015.48 1016.02 1016.32 1016.68 1017.55 1017.91 1018.02 1017.66 1017.67 1018.39 1019.29 1019.84 1020.10 1020.42 1020.44 1020.33 1020.23 1020.42 1021.02 1021.72 1022.92 1024.47 1025.40 1026.21 1026.78 1027.20 1027.47 1027.72
1015.61 1015.95 1016.26 1016.88 1017.94 1017.56 1017.40 1016.49 1016.92 1017.07 1017.26 1015.28 1014.64 1013.79 1014.10 1014.41 1015.06 1014.73 1015.11 1015.70 1016.56 1016.77 1017.75 1017.89 1017.44 1017.86 1018.46 1018.88 1019.27 1019.72 1019.65 1020.04 1020.54 1021.07 1021.31 1021.45 1021.91 1022.62 1024.04 1025.45 1026.38 1026.99 1027.49 1027.84 1028.15
1014.89 1015.27 1015.61 1016.07 1016.24 1016.84 1016.12 1015.93 1016.73 1017.25 1017.06 1014.40 1014.18 1014.02 1014.10 1014.60 1014.77 1015.31 1015.33 1015.43 1016.05 1016.63 1017.29 1016.91 1017.43 1017.74 1018.02 1018.07 1018.65 1019.15 1019.42 1020.17 1020.76 1021.30 1021.74 1022.07 1023.00 1021.99 1023.76 1025.07 1025.95 1026.77 1027.41 1027.99 1028.40
1013.98 1014.57 1015.01 1015.58 1015.91 1015.90 1016.04 1016.03 1016.72 1017.37 1015.12 1014.28 1014.19 1014.24 1014.81 1015.02 1015.30 1015.53 1015.61 1015.64 1016.13 1016.84 1017.13 1017.12 1017.07 1017.23 1017.15 1017.82 1018.21 1019.23 1019.93 1020.78 1021.48 1021.93 1021.96 1021.26 1022.04 1021.50 1022.68 1022.77 1024.79 1026.16 1027.01 1027.67 1028.34
1013.31 1013.73 1014.38 1014.64 1014.72 1015.55 1015.63 1016.27 1016.22 1015.39 1014.24 1014.04 1014.37 1014.48 1014.91 1015.54 1015.88 1015.80 1016.00 1016.18 1016.39 1017.26 1017.30 1017.33 1017.03 1016.87 1016.92 1017.94 1018.62 1018.96 1019.96 1021.36 1022.08 1022.30 1021.22 1021.01 1021.87 1020.06 1020.88 1021.92 1022.77 1024.56 1026.01 1026.99 1027.88
1012.45 1012.99 1013.14 1013.30 1014.15 1014.81 1015.34 1015.47 1014.78 1013.69 1013.27 1013.18 1014.00 1014.69 1015.25 1015.50 1016.04 1016.31 1016.40 1016.59 1016.38 1016.48 1017.03 1017.12 1016.82 1016.30 1016.21 1016.42 1017.38 1018.44 1018.87 1020.02 1020.83 1021.67 1021.26 1021.28 1020.89 1019.94 1021.25 1022.05 1022.86 1024.17 1025.46 1026.73 1027.73
1011.95 1012.06 1011.70 1012.35 1013.35 1013.92 1014.38 1013.55 1012.70 1012.61 1012.38 1012.94 1014.16 1014.68 1015.07 1015.08 1015.55 1016.18 1016.44 1016.06 1015.40 1015.68 1015.98 1016.29 1016.18 1015.56 1015.64 1015.83 1016.31 1018.04 1018.52 1018.56 1020.29 1022.29 1021.84 1020.26 1019.92 1020.54 1021.52 1022.45 1023.30 1024.38 1025.63 1026.61 1027.38
1011.47 1011.38 1011.00 1010.98 1012.28 1012.77 1012.41 1011.92 1011.98 1011.57 1011.59 1012.01 1012.53 1013.04 1013.72 1014.28 1015.18 1015.42 1015.57 1014.28 1014.32 1014.10 1014.24 1014.84 1015.64 1015.83 1015.93 1015.91 1016.47 1016.52 1016.96 1018.62 1019.70 1021.14 1021.37 1020.04 1019.95 1019.66 1021.16 1022.26 1023.21 1024.07 1024.89 1025.88 1026.83
1011.09 1011.08 1010.58 1010.40 1011.68 1011.09 1010.20 1010.87 1010.87 1010.58 1010.84 1011.28 1011.52 1011.74 1012.33 1012.99 1013.38 1014.04 1013.68 1013.34 1013.12 1013.53 1014.04 1014.47 1015.16 1016.39 1016.37 1016.17 1015.97 1016.94 1017.13 1017.85 1018.58 1019.39 1019.83 1020.10 1018.73 1018.15 1019.16 1020.63 1021.87 1023.09 1024.04 1024.78 1025.65
1011.02 1011.15 1010.52 1010.51 1010.62 1009.88 1009.88 1009.83 1009.79 1010.14 1010.32 1010.50 1010.89 1010.95 1011.38 1012.00 1012.55 1013.03 1012.80 1012.05 1012.16 1012.59 1013.69 1013.77 1014.64 1016.22 1016.25 1016.05 1015.96 1015.90 1016.18 1016.40 1017.29 1018.93 1019.39 1019.70 1018.29 1018.43 1018.81 1019.71 1021.21 1022.35 1023.08 1024.03 1024.86
1010.93 1010.92 1010.91 1010.40 1009.66 1009.62 1009.58 1009.32 1009.48 1009.57 1009.39 1009.83 1009.95 1010.23 1010.55 1011.17 1012.08 1012.23 1012.19 1012.63 1012.60 1012.64 1012.32 1013.17 1014.32 1016.04 1016.61 1016.84 1016.63 1016.19 1016.17 1016.25 1016.69 1017.41 1018.03 1019.11 1018.06 1018.53 1018.79 1019.80 1020.73 1021.37 1022.36 1023.47 1024.58
1011.56 1011.30 1011.16 1010.70 1009.87 1009.66 1009.82 1009.36 1009.24 1009.01 1008.83 1009.06 1009.18 1009.56 1010.27 1010.55 1010.83 1011.39 1012.39 1012.89 1013.27 1013.21 1012.98 1012.34 1013.90 1013.76 1013.91 1014.74 1014.97 1016.16 1016.08 1016.28 1016.43 1017.27 1017.28 1016.43 1017.58 1018.50 1019.24 1019.79 1020.46 1021.10 1021.88 1023.11 1023.86
1011.71 1011.10 1011.13 1010.75 1010.52 1009.91 1009.99 1009.76 1009.21 1009.16 1008.99 1008.95 1008.92 1009.12 1009.39 1010.11 1010.80 1011.36 1012.19 1013.12 1013.69 1013.98 1013.61 1013.37 1014.24 1014.73 1015.08 1015.57 1015.58 1015.81 1015.99 1016.16 1016.35 1015.79 1016.40 1016.33 1016.94 1017.38 1018.02 1018.78 1019.24 1019.59 1021.35 1022.78 1023.37
1011.62 1011.75 1011.87 1011.51 1011.08 1010.25 1009.98 1009.92 1009.94 1009.86 1009.79 1009.58 1009.59 1009.29 1009.70 1010.41 1010.73 1011.48 1011.81 1012.70 1013.23 1014.21 1014.26 1014.44 1014.91 1015.29 1016.21 1016.69 1016.71 1016.82 1016.61 1016.70 1016.45 1016.40 1016.51 1016.66 1016.71 1016.62 1017.28 1018.24 1019.24 1019.79 1020.73 1021.73 1022.35
1011.91 1011.83 1011.52 1011.24 1011.12 1011.06 1010.56 1010.33 1010.36 1010.45 1010.58 1010.35 1010.56 1010.70 1011.52 1012.08 1011.87 1012.20 1012.16 1012.57 1013.44 1014.01 1014.64 1015.05 1015.64 1016.38 1017.34 1017.69 1017.60 1017.33 1015.83 1016.42 1016.35 1016.19 1016.16 1016.63 1015.83 1017.01 1017.89 1018.28 1018.42 1019.09 1020.18 1020.61 1021.34
Wind_Speed
3 4 5 5 6 6 7 8 9 9 10 11 12 11 11 11 8 1 2 1 2 4 1 1 5 4 5 4 4 3 5 2 4 6 3 1 2 1 2 1 3 3 4 4 8
2 3 3 4 5 6 6 8 9 9 10 10 12 11 12 10 2 2 2 2 2 5 3 3 2 3 4 2 3 5 4 6 4 4 3 1 1 2 1 3 2 2 5 11 10
2 3 4 4 5 6 7 7 8 9 10 11 12 11 12 4 3 2 2 2 4 2 3 3 4 3 4 2 2 2 5 3 2 4 2 2 2 1 0 2 2 2 3 9 11
4 4 4 5 6 7 8 9 9 9 11 11 12 13 12 2 3 1 1 2 4 5 4 4 4 3 3 2 1 1 1 4 2 2 1 2 2 2 4 1 5 8 6 5 11
5 4 4 5 6 7 8 9 10 10 10 10 12 12 3 4 7 3 5 6 5 3 4 4 3 4 4 4 3 2 2 2 3 5 5 1 4 3 3 7 8 10 12 11 10
6 6 5 6 5 7 9 9 10 10 10 11 10 9 1 4 2 5 6 4 4 4 3 4 6 4 4 3 4 5 2 5 6 3 4 4 1 5 3 5 10 11 10 9 11
7 7 6 6 6 6 8 9 10 10 11 10 7 2 1 12 4 5 4 2 5 3 4 3 6 4 5 3 1 2 4 6 4 2 4 6 3 2 4 7 9 9 8 10 10
9 8 7 7 6 6 7 9 9 11 10 4 0 1 7 1 3 4 4 3 3 3 4 4 4 6 3 5 6 2 4 3 2 3 1 4 3 2 2 5 7 7 7 9 11
10 9 8 8 7 7 7 9 10 6 2 2 2 2 9 3 3 3 3 6 4 3 5 4 5 4 4 6 4 5 3 4 8 3 2 2 4 5 6 7 7 5 6 7 8
10 9 9 8 7 7 7 8 5 2 1 1 1 3 3 4 3 4 2 6 4 5 4 5 6 4 3 5 7 7 5 4 5 2 2 3 8 4 7 7 7 6 6 8 9
11 11 9 7 6 5 5 2 2 2 2 10 7 4 4 1 0 1 3 5 4 5 6 1 4 10 17 10 4 6 5 5 4 3 4 8 6 1 4 6 7 7 8 8 8
12 12 11 8 6 4 2 2 4 2 7 10 6 7 4 6 3 4 5 6 6 7 7 3 10 11 5 6 5 3 4 6 4 4 4 6 8 1 4 2 3 8 7 8 6
15 13 12 10 8 4 5 6 3 3 3 7 7 7 7 10 9 10 11 4 5 7 11 10 4 9 8 5 6 5 7 6 7 2 3 2 5 5 3 5 5 5 5 5 6
15 15 13 11 5 5 5 7 5 1 4 7 7 6 4 8 5 3 8 6 4 12 8 8 4 6 5 6 8 6 9 7 6 4 5 1 6 4 4 5 4 6 5 5 6
16 16 15 19 5 6 4 9 7 2 6 1 3 1 2 6 6 2 1 3 7 8 7 7 8 5 5 9 7 5 6 8 4 3 1 2 1 4 6 6 8 8 7 6 5
15 16 15 12 2 3 6 9 6 7 11 4 3 4 5 1 2 3 3 4 3 5 2 3 1 6 9 3 7 9 7 6 4 3 3 11 10 5 8 8 11 9 8 9 8
16 16 11 7 6 11 10 5 4 6 1 7 5 6 3 5 2 4 6 6 7 6 6 0 5 4 5 6 3 3 6 1 1 1 7 1 4 8 6 4 16 20 16 12 10
16 15 11 7 10 16 6 4 7 7 9 4 4 5 8 7 4 5 6 6 5 3 4 8 6 12 7 9 10 8 8 6 8 6 3 2 7 6 1 3 6 15 14 11 10
13 7 6 8 14 11 7 10 8 7 7 10 3 4 5 5 7 5 8 7 10 12 10 7 7 1 3 4 9 7 7 4 6 2 3 6 4 1 3 3 12 15 13 13 11
4 4 5 17 17 11 6 14 8 6 6 5 15 10 12 10 9 10 11 8 7 15 5 6 2 2 3 4 2 4 9 3 2 2 5 4 5 6 8 11 11 16 18 15 11
4 4 1 17 11 6 5 7 6 6 7 8 12 10 8 10 12 8 10 3 8 9 13 6 4 1 4 7 10 4 4 3 4 5 6 2 6 5 8 15 20 18 18 17 16
2 6 3 6 8 3 11 8 8 8 8 7 2 5 9 9 10 9 15 9 7 12 15 10 4 4 9 2 1 2 8 8 7 5 2 3 7 1 3 13 16 18 18 15 15
2 2 1 1 8 9 2 5 10 8 13 9 12 11 5 11 5 12 7 2 2 8 16 10 5 2 5 1 2 6 5 4 5 4 8 6 6 2 5 10 14 19 18 13 12
2 3 2 2 1 3 13 10 11 6 5 9 5 7 6 9 10 8 8 4 0 2 1 7 5 9 14 4 6 7 7 6 8 5 6 13 4 4 5 10 11 14 13 14 14
2 2 1 3 4 6 4 2 3 6 7 11 7 14 10 9 11 10 6 3 2 4 1 5 7 4 2 3 3 1 5 10 10 11 10 5 11 8 13 15 18 16 11 14 16
2 2 2 1 3 2 9 5 9 4 4 3 4 7 14 10 7 8 7 4 5 1 2 3 2 3 4 3 3 4 6 6 5 1 4 3 10 6 4 7 8 12 15 16 14
1 0 2 4 3 4 4 5 10 5 2 2 2 5 4 7 2 3 1 7 8 6 5 7 6 3 3 3 3 5 9 10 7 6 8 11 13 6 5 8 12 13 14 17 12
Wind_Direction
37 22 25 14 12 9 5 359 356 356 353 352 351 340 333 333 320 171 273 181 200 156 86 97 50 28 46 71 58 118 64 160 205 165 207 321 71 194 314 319 351 5 71 24 350
1 3 10 4 359 355 359 353 350 348 348 351 346 337 331 334 352 289 298 298 107 156 88 103 82 50 48 64 35 84 107 214 191 201 185 291 152 289 308 16 307 40 65 28 29
313 333 341 349 346 345 343 348 345 342 346 346 343 333 324 321 340 241 335 220 148 132 101 99 98 74 72 32 21 144 172 199 220 228 201 166 276 187 165 300 192 274 18 25 31
301 317 324 331 335 336 337 339 340 342 345 343 339 330 324 303 296 176 47 142 147 117 97 103 66 74 97 133 57 74 230 194 252 154 151 216 151 258 191 120 71 71 70 51 37
278 291 305 317 325 327 329 335 336 337 337 339 338 335 357 22 253 166 114 117 109 119 135 131 119 128 160 156 124 158 263 195 266 278 258 4 221 236 335 98 85 73 58 49 40
271 283 291 299 309 317 322 327 328 327 327 330 332 326 72 264 137 147 136 130 139 128 135 135 168 174 115 147 160 183 244 274 271 219 236 215 102 140 125 122 71 65 60 51 44
263 271 280 287 295 306 312 316 318 314 311 314 324 7 115 240 144 151 147 135 160 147 147 169 140 118 128 122 131 113 312 320 252 217 226 161 106 108 96 90 71 56 50 46 35
255 259 264 272 281 290 302 305 307 313 308 287 19 50 245 111 142 143 134 77 93 69 99 117 125 102 89 119 29 71 45 348 280 154 23 171 229 2 311 108 83 66 49 43 33
243 254 260 261 267 281 292 295 302 315 25 110 89 114 265 126 170 189 148 146 102 57 51 80 64 101 59 101 22 4 221 214 315 206 101 174 229 183 338 111 108 79 59 53 37
237 239 246 254 268 276 288 287 289 335 14 154 9 42 250 244 168 133 62 120 119 108 61 57 57 93 64 119 216 193 204 224 231 187 164 191 258 126 20 105 113 99 79 63 51
235 232 234 240 251 276 337 15 346 266 246 196 193 217 148 73 31 132 152 100 100 81 159 102 124 207 203 195 138 141 179 193 234 243 178 228 243 37 109 110 126 113 101 87 68
228 227 219 213 220 199 108 233 216 153 300 237 223 267 223 164 145 199 145 146 153 174 119 80 223 220 137 153 164 155 166 232 280 228 169 254 253 351 29 72 137 134 117 106 91
224 217 210 195 179 177 206 216 144 137 260 277 197 193 196 152 209 193 162 150 165 147 191 180 202 159 143 142 159 205 187 204 220 0 235 325 253 205 56 96 102 91 107 94 93
226 217 205 161 167 147 221 207 170 101 294 255 225 259 128 142 238 182 180 155 198 191 160 235 213 139 156 184 174 222 204 179 182 136 233 124 282 234 166 148 152 143 136 122 108
224 216 197 163 142 186 257 149 134 35 250 15 150 8 147 169 131 341 158 57 178 169 149 226 159 167 177 211 152 234 144 161 143 169 87 221 287 243 139 204 190 180 166 151 139
219 220 206 194 192 142 109 120 94 160 229 230 118 145 123 84 65 109 134 54 123 112 335 246 139 158 191 102 163 146 82 61 67 112 249 208 186 231 191 195 170 177 175 167 157
218 215 189 161 202 145 143 155 185 198 125 196 184 169 157 158 146 149 161 166 164 141 215 266 210 194 143 97 66 154 121 79 331 230 229 65 180 256 184 176 173 172 178 173 166
211 210 212 197 141 148 165 210 191 198 208 112 125 110 176 157 195 166 133 180 243 115 124 180 268 168 190 173 174 184 166 170 204 199 230 112 227 254 5 268 172 169 168 160 168
213 224 209 181 153 166 173 224 202 181 188 138 74 133 216 204 159 144 196 203 197 182 194 175 267 162 165 152 144 181 197 160 108 32 57 218 273 229 96 53 151 163 159 175 179
230 208 230 156 164 177 201 219 216 206 132 173 197 174 183 185 165 182 177 201 201 184 187 213 195 228 175 113 22 171 155 105 12 184 253 266 263 238 199 183 170 173 179 183 180
213 229 346 160 164 210 211 211 196 192 171 180 216 194 197 177 186 194 206 232 200 186 178 155 168 256 123 216 176 150 173 85 135 161 184 234 252 215 196 178 183 185 185 183 183
181 230 90 193 199 219 213 183 163 185 201 209 200 236 190 179 198 210 206 208 163 150 185 189 120 177 211 297 310 194 188 167 167 211 218 149 260 357 234 175 174 183 189 191 187
235 228 275 27 228 219 192 200 199 170 194 194 199 199 171 192 203 216 187 65 191 182 167 173 185 131 320 322 306 211 195 137 98 82 190 154 257 61 100 156 186 185 195 188 182
164 237 223 156 325 172 239 212 213 202 197 198 203 152 163 198 211 198 193 186 354 158 282 101 162 207 220 187 144 181 181 178 168 172 169 225 229 234 190 185 190 200 190 183 181
227 200 39 209 229 200 177 62 272 206 218 205 203 209 199 226 212 213 168 131 124 197 58 111 204 163 88 47 66 128 155 179 196 206 200 197 220 202 198 202 204 198 176 179 187
192 189 129 192 283 323 192 190 212 193 205 203 261 203 197 189 196 190 141 162 172 207 116 43 159 136 146 40 44 305 221 200 231 17 263 174 259 187 161 121 154 185 179 187 192
64 297 132 168 167 165 201 185 202 209 325 44 242 176 253 315 67 18 144 135 149 158 141 147 134 120 201 33 63 292 218 197 188 189 192 215 239 169 198 205 195 182 180 188 184